Location: Manchester NH
(43.0000°N, 71.5000°W)
Time: 06:43:47
(UTC-04:00)

OTV 5 (USA 277) - Visible Passes

Search period start: 25 April 2019 00:00
Search period end: 05 May 2019 00:00
Orbit: 309 x 326 km, 54.5° (Epoch: 21 April)

Date Brightness Start Highest point End Pass type
(mag) Time Alt. Az. Time Alt. Az. Time Alt. Az.
25 Apr ? 20:21:39 10° SW 20:24:22 80° SE 20:27:06 10° NE visible
25 Apr ? 21:57:20 10° WNW 21:59:01 15° NNW 22:00:43 10° NNE visible
26 Apr ? 20:36:33 10° WSW 20:39:08 37° NNW 20:41:43 10° NE visible
26 Apr ? 22:13:41 10° NNW 22:14:05 10° NNW 22:14:30 10° N visible
27 Apr ? 20:51:57 10° WNW 20:54:02 19° NNW 20:56:07 10° NNE visible
28 Apr ? 21:07:51 10° NW 21:09:04 12° NNW 21:10:16 10° N visible
01 May ? 20:18:40 10° NNW 20:19:07 10° NNW 20:19:33 10° N visible
02 May ? 22:08:52 10° N 22:09:40 11° NNE 22:10:09 11° NNE visible
03 May ? 22:22:52 10° NNW 22:24:10 16° N 22:24:10 16° N visible
04 May ? 22:37:11 10° NNW 22:38:12 18° NNW 22:38:12 18° NNW visible
